QPF
0.02 0.05 0.10 0.12 0.16 0.17 0.14 0.09 0.04 0.01 0.00 0.00 0.00 0.00 0.01 0.02 0.03 0.08 0.11 0.08 0.07 0.06 0.04 0.04 0.05 0.07 0.07 0.06 0.06 0.06 0.08 0.10 0.09 0.08 0.09 0.11 0.09 0.11 0.13 0.12 0.12 0.15 0.17 0.14 0.12 0.12 0.15 0.19 0.19
0.05 0.10 0.11 0.15 0.13 0.09 0.07 0.05 0.02 0.01 0.00 0.00 0.00 0.00 0.01 0.01 0.03 0.06 0.07 0.05 0.04 0.04 0.03 0.03 0.05 0.07 0.07 0.07 0.06 0.05 0.08 0.11 0.11 0.09 0.10 0.14 0.16 0.14 0.11 0.11 0.14 0.14 0.12 0.09 0.07 0.08 0.11 0.11 0.10
0.08 0.15 0.15 0.14 0.10 0.05 0.04 0.04 0.01 0.00 0.00 0.00 0.00 0.00 0.01 0.02 0.03 0.04 0.04 0.03 0.02 0.03 0.03 0.03 0.04 0.06 0.06 0.05 0.05 0.05 0.07 0.09 0.11 0.13 0.16 0.19 0.23 0.17 0.11 0.11 0.12 0.11 0.11 0.07 0.04 0.04 0.05 0.05 0.05
0.12 0.15 0.14 0.11 0.10 0.06 0.04 0.02 0.01 0.01 0.01 0.00 0.00 0.00 0.01 0.02 0.02 0.02 0.02 0.02 0.01 0.01 0.01 0.02 0.03 0.05 0.06 0.05 0.05 0.06 0.08 0.11 0.17 0.23 0.19 0.15 0.16 0.14 0.11 0.11 0.09 0.08 0.08 0.06 0.04 0.04 0.04 0.04 0.03
0.12 0.12 0.13 0.10 0.07 0.05 0.04 0.02 0.01 0.01 0.01 0.00 0.00 0.00 0.01 0.02 0.02 0.02 0.02 0.02 0.01 0.01 0.01 0.02 0.03 0.03 0.04 0.05 0.06 0.07 0.11 0.15 0.18 0.19 0.12 0.09 0.10 0.10 0.07 0.06 0.05 0.05 0.05 0.04 0.03 0.04 0.03 0.03 0.03
0.12 0.12 0.10 0.09 0.08 0.04 0.04 0.02 0.01 0.01 0.01 0.00 0.00 0.00 0.03 0.02 0.01 0.01 0.01 0.01 0.02 0.02 0.01 0.02 0.06 0.05 0.04 0.04 0.04 0.05 0.07 0.09 0.11 0.10 0.08 0.07 0.06 0.07 0.06 0.05 0.05 0.05 0.04 0.03 0.04 0.04 0.03 0.02 0.02
0.20 0.13 0.08 0.06 0.05 0.04 0.02 0.00 0.01 0.01 0.01 0.00 0.00 0.00 0.02 0.02 0.01 0.01 0.01 0.02 0.02 0.01 0.02 0.02 0.04 0.04 0.04 0.04 0.05 0.06 0.09 0.08 0.08 0.08 0.07 0.06 0.06 0.06 0.07 0.06 0.06 0.06 0.05 0.04 0.04 0.04 0.03 0.02 0.02
0.14 0.08 0.04 0.06 0.07 0.04 0.02 0.01 0.01 0.01 0.01 0.00 0.00 0.00 0.01 0.02 0.01 0.01 0.02 0.02 0.01 0.01 0.01 0.02 0.01 0.01 0.02 0.04 0.06 0.07 0.10 0.10 0.09 0.08 0.07 0.08 0.07 0.06 0.07 0.07 0.07 0.07 0.06 0.05 0.04 0.04 0.03 0.03 0.02
0.06 0.04 0.02 0.02 0.04 0.03 0.03 0.03 0.02 0.00 0.00 0.00 0.00 0.00 0.00 0.01 0.01 0.01 0.02 0.04 0.02 0.01 0.01 0.02 0.01 0.02 0.02 0.04 0.07 0.08 0.10 0.12 0.11 0.10 0.10 0.08 0.07 0.05 0.07 0.06 0.09 0.10 0.09 0.06 0.06 0.05 0.04 0.04 0.04
0.03 0.03 0.01 0.00 0.00 0.01 0.03 0.04 0.01 0.00 0.00 0.00 0.00 0.00 0.01 0.01 0.01 0.02 0.02 0.03 0.02 0.01 0.02 0.02 0.01 0.02 0.03 0.04 0.06 0.09 0.11 0.12 0.11 0.09 0.08 0.06 0.07 0.08 0.07 0.08 0.10 0.11 0.11 0.11 0.11 0.08 0.06 0.04 0.03
0.01 0.01 0.00 0.00 0.00 0.00 0.01 0.01 0.01 0.00 0.01 0.01 0.01 0.00 0.01 0.01 0.02 0.02 0.03 0.03 0.02 0.01 0.01 0.03 0.02 0.02 0.02 0.04 0.05 0.07 0.09 0.11 0.11 0.12 0.10 0.10 0.10 0.14 0.15 0.13 0.15 0.15 0.14 0.12 0.12 0.07 0.04 0.05 0.05
0.00 0.00 0.00 0.00 0.00 0.00 0.00 0.01 0.02 0.01 0.01 0.01 0.00 0.00 0.01 0.02 0.02 0.02 0.06 0.06 0.03 0.02 0.02 0.02 0.01 0.02 0.03 0.05 0.05 0.05 0.07 0.07 0.06 0.09 0.10 0.10 0.11 0.12 0.16 0.17 0.18 0.19 0.11 0.07 0.08 0.07 0.08 0.09 0.07
0.01 0.00 0.00 0.00 0.01 0.00 0.01 0.01 0.01 0.01 0.01 0.00 0.00 0.01 0.02 0.02 0.01 0.03 0.03 0.02 0.02 0.02 0.04 0.02 0.01 0.01 0.03 0.03 0.05 0.05 0.06 0.06 0.05 0.05 0.06 0.07 0.07 0.10 0.14 0.16 0.18 0.16 0.10 0.07 0.07 0.07 0.07 0.09 0.09
0.01 0.00 0.00 0.00 0.01 0.01 0.01 0.01 0.01 0.01 0.02 0.01 0.00 0.01 0.02 0.02 0.02 0.03 0.02 0.01 0.01 0.01 0.03 0.04 0.02 0.02 0.03 0.03 0.05 0.03 0.04 0.04 0.06 0.07 0.05 0.06 0.07 0.07 0.09 0.12 0.15 0.15 0.12 0.09 0.08 0.08 0.08 0.08 0.08
0.01 0.00 0.01 0.01 0.01 0.01 0.01 0.01 0.02 0.02 0.04 0.03 0.01 0.01 0.02 0.02 0.02 0.02 0.02 0.02 0.01 0.01 0.01 0.03 0.02 0.02 0.02 0.02 0.02 0.02 0.04 0.04 0.05 0.06 0.06 0.06 0.08 0.08 0.08 0.10 0.12 0.11 0.10 0.10 0.10 0.12 0.10 0.07 0.06
0.01 0.01 0.02 0.02 0.01 0.01 0.02 0.03 0.03 0.03 0.05 0.04 0.02 0.01 0.01 0.01 0.01 0.01 0.02 0.01 0.01 0.01 0.01 0.01 0.01 0.01 0.01 0.01 0.01 0.02 0.03 0.05 0.05 0.06 0.09 0.07 0.07 0.09 0.09 0.09 0.07 0.06 0.06 0.06 0.07 0.09 0.10 0.09 0.08
0.01 0.01 0.01 0.01 0.02 0.02 0.02 0.03 0.03 0.03 0.03 0.04 0.04 0.06 0.01 0.01 0.01 0.01 0.01 0.01 0.01 0.01 0.01 0.01 0.00 0.00 0.00 0.00 0.01 0.01 0.02 0.03 0.04 0.06 0.10 0.09 0.07 0.08 0.08 0.08 0.08 0.05 0.05 0.07 0.07 0.08 0.09 0.10 0.10
0.02 0.01 0.00 0.01 0.01 0.02 0.02 0.03 0.02 0.02 0.03 0.04 0.03 0.03 0.01 0.01 0.01 0.01 0.01 0.01 0.01 0.01 0.01 0.01 0.00 0.00 0.00 0.00 0.00 0.01 0.02 0.02 0.03 0.05 0.07 0.08 0.07 0.06 0.06 0.07 0.07 0.05 0.06 0.08 0.10 0.11 0.11 0.13 0.12
0.01 0.01 0.01 0.00 0.01 0.02 0.03 0.03 0.02 0.02 0.03 0.05 0.03 0.02 0.01 0.01 0.01 0.00 0.00 0.00 0.00 0.00 0.00 0.01 0.00 0.00 0.00 0.00 0.00 0.01 0.02 0.02 0.04 0.05 0.04 0.06 0.06 0.04 0.05 0.06 0.06 0.06 0.06 0.07 0.08 0.09 0.11 0.13 0.12
0.00 0.00 0.01 0.01 0.00 0.01 0.03 0.04 0.02 0.03 0.05 0.06 0.04 0.01 0.00 0.00 0.01 0.01 0.01 0.01 0.01 0.01 0.00 0.00 0.00 0.00 0.00 0.00 0.01 0.01 0.02 0.03 0.04 0.04 0.04 0.04 0.05 0.05 0.05 0.04 0.04 0.04 0.06 0.07 0.07 0.07 0.08 0.08 0.09
0.00 0.00 0.01 0.01 0.01 0.01 0.02 0.05 0.03 0.02 0.03 0.02 0.01 0.01 0.00 0.00 0.00 0.01 0.01 0.01 0.01 0.01 0.00 0.00 0.00 0.00 0.00 0.00 0.00 0.00 0.01 0.01 0.01 0.02 0.02 0.04 0.05 0.06 0.05 0.03 0.04 0.05 0.06 0.06 0.07 0.08 0.09 0.08 0.10
0.00 0.00 0.00 0.00 0.01 0.01 0.02 0.04 0.03 0.02 0.02 0.02 0.02 0.02 0.01 0.01 0.01 0.00 0.00 0.00 0.01 0.01 0.01 0.00 0.00 0.00 0.00 0.00 0.00 0.00 0.00 0.00 0.00 0.01 0.01 0.03 0.04 0.05 0.05 0.03 0.04 0.05 0.06 0.05 0.06 0.07 0.07 0.10 0.12
0.01 0.01 0.01 0.01 0.01 0.01 0.01 0.04 0.07 0.04 0.04 0.03 0.02 0.02 0.01 0.01 0.01 0.00 0.00 0.01 0.01 0.01 0.01 0.01 0.01 0.01 0.01 0.01 0.01 0.01 0.01 0.01 0.01 0.01 0.01 0.02 0.03 0.04 0.06 0.06 0.06 0.06 0.07 0.05 0.06 0.07 0.07 0.07 0.08
0.00 0.01 0.01 0.01 0.01 0.01 0.01 0.02 0.06 0.08 0.07 0.04 0.02 0.02 0.02 0.01 0.00 0.00 0.01 0.01 0.01 0.03 0.05 0.03 0.01 0.01 0.02 0.02 0.02 0.02 0.02 0.02 0.02 0.02 0.01 0.02 0.02 0.03 0.04 0.05 0.06 0.06 0.06 0.04 0.04 0.05 0.06 0.06 0.05
0.00 0.01 0.03 0.03 0.02 0.02 0.02 0.03 0.05 0.06 0.04 0.03 0.02 0.02 0.02 0.01 0.00 0.00 0.00 0.00 0.01 0.01 0.02 0.04 0.02 0.02 0.02 0.02 0.03 0.03 0.03 0.03 0.03 0.02 0.02 0.02 0.03 0.02 0.02 0.04 0.04 0.04 0.04 0.05 0.05 0.04 0.04 0.06 0.07
0.01 0.01 0.02 0.04 0.02 0.02 0.03 0.04 0.05 0.05 0.06 0.04 0.03 0.02 0.01 0.01 0.00 0.00 0.00 0.00 0.01 0.01 0.00 0.01 0.01 0.01 0.01 0.01 0.02 0.03 0.03 0.03 0.02 0.02 0.02 0.03 0.04 0.03 0.02 0.02 0.04 0.04 0.05 0.06 0.06 0.05 0.05 0.08 0.06
0.01 0.03 0.02 0.02 0.01 0.02 0.03 0.04 0.04 0.06 0.07 0.04 0.02 0.01 0.01 0.00 0.00 0.00 0.01 0.01 0.01 0.01 0.01 0.00 0.01 0.02 0.03 0.03 0.01 0.01 0.01 0.01 0.01 0.02 0.03 0.03 0.04 0.04 0.05 0.06 0.05 0.05 0.06 0.06 0.06 0.08 0.09 0.08 0.07
0.01 0.01 0.01 0.02 0.02 0.02 0.03 0.05 0.05 0.03 0.04 0.05 0.02 0.01 0.01 0.01 0.00 0.00 0.01 0.01 0.00 0.01 0.03 0.03 0.02 0.04 0.07 0.10 0.06 0.02 0.02 0.02 0.02 0.02 0.02 0.02 0.03 0.05 0.06 0.10 0.10 0.09 0.06 0.05 0.08 0.10 0.09 0.11 0.13
0.00 0.01 0.01 0.01 0.02 0.03 0.04 0.05 0.04 0.04 0.07 0.07 0.03 0.02 0.01 0.01 0.00 0.00 0.00 0.00 0.01 0.01 0.03 0.03 0.02 0.04 0.07 0.07 0.05 0.03 0.02 0.02 0.02 0.02 0.02 0.02 0.03 0.03 0.04 0.07 0.11 0.14 0.13 0.11 0.14 0.12 0.13 0.16 0.17
0.01 0.02 0.01 0.02 0.02 0.03 0.04 0.05 0.05 0.11 0.13 0.05 0.02 0.02 0.02 0.01 0.00 0.00 0.01 0.01 0.01 0.01 0.01 0.02 0.02 0.02 0.02 0.03 0.04 0.05 0.04 0.03 0.02 0.01 0.02 0.02 0.03 0.03 0.03 0.03 0.05 0.09 0.14 0.14 0.13 0.13 0.12 0.10 0.10
MSLP
1009.18 1009.93 1010.71 1011.38 1011.87 1012.11 1012.12 1011.94 1011.67 1011.42 1011.29 1011.33 1011.55 1011.92 1012.36 1012.78 1013.09 1013.26 1013.26 1013.12 1012.91 1012.69 1012.54 1012.48 1012.54 1012.68 1012.87 1013.06 1013.21 1013.31 1013.35 1013.37 1013.42 1013.52 1013.69 1013.94 1014.25 1014.56 1014.84 1015.05 1015.18 1015.23 1015.22 1015.20 1015.19 1015.22 1015.31 1015.45 1015.61
1009.40 1010.23 1011.00 1011.58 1011.91 1011.95 1011.74 1011.38 1010.96 1010.63 1010.45 1010.49 1010.74 1011.13 1011.59 1012.03 1012.36 1012.55 1012.58 1012.51 1012.39 1012.29 1012.27 1012.35 1012.53 1012.78 1013.05 1013.30 1013.48 1013.58 1013.63 1013.66 1013.70 1013.79 1013.95 1014.18 1014.45 1014.72 1014.97 1015.14 1015.25 1015.29 1015.29 1015.28 1015.29 1015.34 1015.45 1015.59 1015.75
1009.79 1010.65 1011.36 1011.80 1011.92 1011.74 1011.33 1010.79 1010.27 1009.88 1009.70 1009.77 1010.05 1010.48 1010.96 1011.40 1011.73 1011.92 1011.97 1011.95 1011.90 1011.90 1011.99 1012.18 1012.47 1012.82 1013.16 1013.45 1013.67 1013.80 1013.87 1013.90 1013.94 1014.02 1014.16 1014.35 1014.58 1014.81 1015.01 1015.16 1015.25 1015.29 1015.31 1015.33 1015.37 1015.45 1015.57 1015.72 1015.88
1010.32 1011.15 1011.73 1011.98 1011.88 1011.48 1010.88 1010.21 1009.62 1009.23 1009.10 1009.23 1009.58 1010.05 1010.56 1011.00 1011.31 1011.48 1011.54 1011.54 1011.54 1011.61 1011.78 1012.05 1012.42 1012.83 1013.22 1013.55 1013.79 1013.95 1014.04 1014.09 1014.14 1014.22 1014.34 1014.51 1014.69 1014.87 1015.03 1015.16 1015.24 1015.30 1015.35 1015.40 1015.48 1015.59 1015.72 1015.86 1016.01
1010.93 1011.64 1012.03 1012.05 1011.72 1011.11 1010.36 1009.62 1009.03 1008.70 1008.66 1008.90 1009.33 1009.86 1010.39 1010.83 1011.13 1011.29 1011.34 1011.35 1011.38 1011.49 1011.70 1012.03 1012.43 1012.85 1013.26 1013.60 1013.86 1014.04 1014.15 1014.23 1014.30 1014.39 1014.51 1014.65 1014.81 1014.96 1015.09 1015.19 1015.28 1015.35 1015.43 1015.52 1015.63 1015.76 1015.89 1016.02 1016.14
1011.47 1012.00 1012.15 1011.92 1011.35 1010.58 1009.74 1009.00 1008.47 1008.26 1008.36 1008.72 1009.26 1009.86 1010.41 1010.86 1011.14 1011.29 1011.33 1011.35 1011.41 1011.54 1011.78 1012.11 1012.51 1012.92 1013.30 1013.63 1013.88 1014.06 1014.20 1014.31 1014.42 1014.54 1014.67 1014.82 1014.96 1015.08 1015.20 1015.29 1015.38 1015.48 1015.58 1015.70 1015.83 1015.95 1016.07 1016.17 1016.24
1011.83 1012.12 1012.00 1011.51 1010.75 1009.85 1008.99 1008.31 1007.91 1007.86 1008.12 1008.62 1009.26 1009.92 1010.51 1010.95 1011.23 1011.37 1011.43 1011.47 1011.55 1011.71 1011.96 1012.28 1012.64 1013.01 1013.34 1013.63 1013.85 1014.04 1014.20 1014.35 1014.50 1014.66 1014.83 1014.99 1015.13 1015.25 1015.36 1015.45 1015.54 1015.64 1015.76 1015.89 1016.02 1016.14 1016.23 1016.28 1016.30
1011.91 1011.92 1011.53 1010.82 1009.91 1008.97 1008.15 1007.58 1007.35 1007.48 1007.90 1008.53 1009.25 1009.95 1010.54 1010.98 1011.25 1011.41 1011.50 1011.58 1011.70 1011.89 1012.15 1012.46 1012.78 1013.09 1013.36 1013.59 1013.78 1013.96 1014.14 1014.32 1014.53 1014.74 1014.95 1015.14 1015.30 1015.43 1015.53 1015.61 1015.70 1015.81 1015.93 1016.06 1016.19 1016.28 1016.34 1016.34 1016.29
1011.68 1011.42 1010.80 1009.92 1008.93 1008.00 1007.28 1006.87 1006.82 1007.12 1007.68 1008.40 1009.16 1009.85 1010.42 1010.83 1011.10 1011.28 1011.41 1011.55 1011.74 1011.98 1012.26 1012.56 1012.85 1013.11 1013.32 1013.50 1013.66 1013.82 1014.02 1014.24 1014.50 1014.76 1015.01 1015.24 1015.41 1015.55 1015.65 1015.74 1015.83 1015.93 1016.05 1016.17 1016.28 1016.36 1016.38 1016.34 1016.24
1011.15 1010.68 1009.89 1008.92 1007.93 1007.08 1006.50 1006.27 1006.39 1006.83 1007.48 1008.23 1008.97 1009.61 1010.12 1010.48 1010.73 1010.92 1011.10 1011.32 1011.58 1011.89 1012.21 1012.52 1012.80 1013.01 1013.18 1013.32 1013.45 1013.62 1013.82 1014.08 1014.38 1014.68 1014.98 1015.23 1015.43 1015.58 1015.69 1015.77 1015.86 1015.97 1016.08 1016.20 1016.30 1016.36 1016.36 1016.29 1016.17
1010.45 1009.83 1008.95 1007.97 1007.05 1006.34 1005.94 1005.88 1006.15 1006.68 1007.35 1008.07 1008.72 1009.25 1009.65 1009.94 1010.15 1010.35 1010.58 1010.87 1011.21 1011.59 1011.96 1012.30 1012.58 1012.78 1012.92 1013.04 1013.16 1013.33 1013.55 1013.83 1014.16 1014.50 1014.82 1015.10 1015.32 1015.48 1015.60 1015.70 1015.80 1015.91 1016.03 1016.15 1016.25 1016.31 1016.30 1016.24 1016.12
1009.69 1009.02 1008.14 1007.23 1006.45 1005.90 1005.68 1005.78 1006.15 1006.71 1007.34 1007.95 1008.46 1008.85 1009.11 1009.29 1009.45 1009.64 1009.91 1010.25 1010.66 1011.11 1011.53 1011.90 1012.19 1012.40 1012.54 1012.66 1012.79 1012.96 1013.20 1013.50 1013.84 1014.20 1014.54 1014.83 1015.07 1015.26 1015.40 1015.52 1015.64 1015.77 1015.91 1016.04 1016.16 1016.23 1016.24 1016.20 1016.10
1009.02 1008.36 1007.57 1006.79 1006.18 1005.82 1005.76 1005.98 1006.40 1006.93 1007.47 1007.92 1008.26 1008.46 1008.57 1008.64 1008.74 1008.91 1009.19 1009.57 1010.03 1010.51 1010.97 1011.36 1011.67 1011.89 1012.05 1012.19 1012.34 1012.54 1012.79 1013.10 1013.45 1013.81 1014.15 1014.45 1014.71 1014.92 1015.09 1015.25 1015.41 1015.58 1015.75 1015.92 1016.05 1016.15 1016.20 1016.18 1016.13
1008.56 1007.97 1007.29 1006.69 1006.26 1006.08 1006.15 1006.44 1006.85 1007.30 1007.69 1007.97 1008.11 1008.14 1008.11 1008.07 1008.11 1008.26 1008.53 1008.92 1009.39 1009.88 1010.34 1010.75 1011.07 1011.31 1011.50 1011.68 1011.86 1012.08 1012.36 1012.67 1013.01 1013.36 1013.69 1013.99 1014.26 1014.50 1014.72 1014.93 1015.15 1015.36 1015.58 1015.78 1015.95 1016.08 1016.16 1016.19 1016.18
1008.32 1007.82 1007.29 1006.86 1006.60 1006.56 1006.73 1007.03 1007.38 1007.71 1007.93 1008.02 1007.99 1007.86 1007.72 1007.61 1007.60 1007.73 1008.00 1008.37 1008.82 1009.28 1009.73 1010.12 1010.44 1010.70 1010.94 1011.16 1011.39 1011.65 1011.94 1012.26 1012.58 1012.90 1013.21 1013.50 1013.77 1014.04 1014.30 1014.58 1014.86 1015.14 1015.41 1015.65 1015.85 1016.01 1016.13 1016.20 1016.24
1008.28 1007.88 1007.49 1007.20 1007.09 1007.15 1007.34 1007.61 1007.86 1008.03 1008.07 1007.99 1007.80 1007.57 1007.35 1007.22 1007.20 1007.33 1007.58 1007.93 1008.34 1008.75 1009.15 1009.51 1009.83 1010.11 1010.39 1010.67 1010.96 1011.26 1011.58 1011.89 1012.19 1012.47 1012.74 1013.01 1013.28 1013.57 1013.88 1014.21 1014.56 1014.90 1015.22 1015.50 1015.74 1015.92 1016.06 1016.16 1016.25
1008.36 1008.04 1007.77 1007.61 1007.60 1007.71 1007.88 1008.06 1008.17 1008.16 1008.02 1007.78 1007.47 1007.16 1006.93 1006.80 1006.81 1006.96 1007.22 1007.54 1007.90 1008.27 1008.61 1008.93 1009.24 1009.55 1009.88 1010.23 1010.59 1010.95 1011.29 1011.60 1011.87 1012.10 1012.33 1012.55 1012.81 1013.11 1013.46 1013.84 1014.25 1014.65 1015.01 1015.33 1015.58 1015.78 1015.94 1016.07 1016.20
1008.47 1008.22 1008.06 1008.00 1008.06 1008.17 1008.29 1008.34 1008.27 1008.06 1007.73 1007.33 1006.92 1006.58 1006.35 1006.27 1006.34 1006.53 1006.81 1007.13 1007.46 1007.77 1008.07 1008.36 1008.67 1009.02 1009.41 1009.84 1010.28 1010.69 1011.07 1011.38 1011.62 1011.81 1011.97 1012.15 1012.38 1012.68 1013.04 1013.47 1013.92 1014.36 1014.76 1015.10 1015.37 1015.58 1015.75 1015.91 1016.07
1008.52 1008.36 1008.30 1008.34 1008.44 1008.54 1008.57 1008.46 1008.19 1007.76 1007.22 1006.66 1006.15 1005.77 1005.57 1005.55 1005.69 1005.96 1006.28 1006.61 1006.92 1007.21 1007.48 1007.76 1008.09 1008.49 1008.95 1009.47 1009.99 1010.48 1010.89 1011.21 1011.42 1011.56 1011.67 1011.80 1011.99 1012.27 1012.64 1013.08 1013.56 1014.04 1014.46 1014.82 1015.10 1015.32 1015.50 1015.68 1015.88
1008.47 1008.42 1008.48 1008.63 1008.79 1008.87 1008.80 1008.53 1008.03 1007.36 1006.60 1005.86 1005.23 1004.80 1004.60 1004.63 1004.85 1005.19 1005.57 1005.94 1006.26 1006.54 1006.80 1007.10 1007.46 1007.92 1008.47 1009.08 1009.69 1010.26 1010.72 1011.05 1011.25 1011.35 1011.41 1011.48 1011.63 1011.88 1012.24 1012.69 1013.18 1013.68 1014.12 1014.49 1014.78 1015.00 1015.20 1015.40 1015.64
1008.32 1008.42 1008.65 1008.94 1009.19 1009.27 1009.12 1008.67 1007.95 1007.03 1006.02 1005.07 1004.29 1003.77 1003.54 1003.60 1003.87 1004.27 1004.70 1005.11 1005.46 1005.76 1006.05 1006.37 1006.78 1007.30 1007.93 1008.63 1009.33 1009.97 1010.48 1010.84 1011.04 1011.12 1011.14 1011.17 1011.28 1011.50 1011.84 1012.29 1012.79 1013.29 1013.74 1014.12 1014.42 1014.66 1014.87 1015.09 1015.36
1008.12 1008.42 1008.87 1009.34 1009.70 1009.82 1009.61 1009.02 1008.09 1006.92 1005.65 1004.47 1003.50 1002.85 1002.55 1002.58 1002.86 1003.30 1003.78 1004.23 1004.61 1004.94 1005.25 1005.60 1006.05 1006.63 1007.32 1008.09 1008.86 1009.56 1010.13 1010.52 1010.73 1010.82 1010.83 1010.84 1010.93 1011.13 1011.45 1011.89 1012.38 1012.89 1013.35 1013.74 1014.05 1014.30 1014.52 1014.76 1015.05
1007.91 1008.46 1009.15 1009.84 1010.36 1010.56 1010.32 1009.63 1008.51 1007.11 1005.60 1004.18 1003.01 1002.20 1001.79 1001.75 1002.01 1002.45 1002.95 1003.42 1003.83 1004.17 1004.50 1004.86 1005.33 1005.92 1006.64 1007.44 1008.25 1009.00 1009.62 1010.05 1010.30 1010.41 1010.44 1010.47 1010.56 1010.75 1011.07 1011.50 1011.98 1012.48 1012.94 1013.33 1013.65 1013.91 1014.15 1014.41 1014.71
1007.73 1008.54 1009.50 1010.42 1011.12 1011.42 1011.21 1010.45 1009.21 1007.63 1005.92 1004.29 1002.92 1001.94 1001.40 1001.27 1001.47 1001.88 1002.36 1002.83 1003.23 1003.56 1003.87 1004.21 1004.65 1005.22 1005.91 1006.70 1007.52 1008.28 1008.93 1009.41 1009.72 1009.89 1009.97 1010.03 1010.15 1010.36 1010.68 1011.10 1011.58 1012.07 1012.52 1012.92 1013.24 1013.50 1013.75 1014.01 1014.32
1007.60 1008.65 1009.85 1010.99 1011.87 1012.30 1012.14 1011.38 1010.09 1008.40 1006.55 1004.77 1003.25 1002.13 1001.47 1001.24 1001.36 1001.70 1002.14 1002.56 1002.92 1003.20 1003.45 1003.72 1004.07 1004.55 1005.17 1005.89 1006.67 1007.42 1008.08 1008.61 1008.98 1009.23 1009.39 1009.53 1009.70 1009.95 1010.28 1010.71 1011.17 1011.65 1012.09 1012.47 1012.79 1013.06 1013.30 1013.57 1013.87
1007.48 1008.72 1010.12 1011.44 1012.48 1013.02 1012.96 1012.25 1010.97 1009.27 1007.38 1005.54 1003.94 1002.73 1001.98 1001.66 1001.70 1001.96 1002.31 1002.66 1002.93 1003.12 1003.26 1003.40 1003.62 1003.96 1004.44 1005.05 1005.74 1006.45 1007.11 1007.67 1008.12 1008.46 1008.72 1008.95 1009.20 1009.50 1009.86 1010.29 1010.75 1011.20 1011.63 1012.00 1012.30 1012.57 1012.82 1013.07 1013.37
1007.36 1008.72 1010.22 1011.66 1012.80 1013.45 1013.49 1012.88 1011.69 1010.07 1008.24 1006.44 1004.86 1003.64 1002.85 1002.47 1002.42 1002.60 1002.85 1003.09 1003.24 1003.29 1003.27 1003.25 1003.28 1003.44 1003.75 1004.21 1004.78 1005.41 1006.05 1006.65 1007.17 1007.60 1007.98 1008.32 1008.65 1009.02 1009.42 1009.85 1010.30 1010.74 1011.14 1011.49 1011.79 1012.05 1012.30 1012.55 1012.84
1007.21 1008.60 1010.12 1011.58 1012.76 1013.48 1013.61 1013.14 1012.10 1010.65 1008.99 1007.32 1005.85 1004.69 1003.91 1003.51 1003.40 1003.48 1003.62 1003.72 1003.72 1003.61 1003.41 1003.19 1003.03 1002.98 1003.10 1003.38 1003.82 1004.37 1004.98 1005.60 1006.18 1006.72 1007.20 1007.65 1008.08 1008.51 1008.95 1009.39 1009.83 1010.25 1010.63 1010.96 1011.26 1011.52 1011.77 1012.03 1012.32
1007.04 1008.37 1009.82 1011.22 1012.37 1013.10 1013.32 1012.98 1012.14 1010.92 1009.49 1008.04 1006.74 1005.71 1004.99 1004.59 1004.43 1004.41 1004.43 1004.38 1004.22 1003.93 1003.55 1003.15 1002.79 1002.55 1002.48 1002.61 1002.92 1003.39 1003.96 1004.59 1005.23 1005.85 1006.44 1006.98 1007.50 1007.99 1008.47 1008.93 1009.36 1009.76 1010.13 1010.45 1010.74 1011.01 1011.28 1011.55 1011.85
1006.91 1008.10 1009.41 1010.67 1011.72 1012.42 1012.69 1012.48 1011.85 1010.87 1009.71 1008.52 1007.44 1006.55 1005.92 1005.53 1005.32 1005.20 1005.08 1004.89 1004.57 1004.12 1003.58 1003.01 1002.50 1002.10 1001.89 1001.89 1002.10 1002.49 1003.04 1003.68 1004.36 1005.05 1005.73 1006.36 1006.95 1007.50 1008.01 1008.48 1008.92 1009.31 1009.67 1009.99 1010.29 1010.57 1010.85 1011.14 1011.46
Thickness
5818 5816 5812 5801 5781 5764 5763 5778 5788 5790 5791 5797 5800 5793 5782 5775 5767 5758 5779 5788 5788 5788 5788 5788 5789 5789 5789 5789 5789 5789 5790 5790 5788 5787 5786 5785 5784 5783 5782 5782 5781 5779 5778 5777 5775 5774 5772 5771 5769
5821 5818 5808 5792 5769 5751 5762 5784 5788 5793 5799 5803 5801 5794 5785 5779 5784 5781 5783 5788 5789 5788 5788 5788 5788 5789 5789 5789 5789 5789 5788 5788 5787 5785 5785 5784 5784 5782 5781 5781 5780 5778 5777 5775 5774 5772 5770 5769 5768
5825 5820 5800 5783 5769 5760 5769 5789 5795 5802 5809 5806 5797 5795 5787 5780 5786 5785 5788 5790 5789 5788 5788 5788 5788 5788 5788 5789 5788 5788 5787 5786 5785 5784 5783 5783 5782 5781 5780 5780 5778 5777 5775 5774 5773 5771 5770 5768 5767
5823 5810 5797 5779 5772 5786 5792 5798 5804 5802 5803 5805 5797 5786 5788 5795 5793 5792 5792 5791 5789 5787 5787 5787 5787 5787 5787 5787 5787 5786 5786 5784 5784 5783 5782 5781 5780 5780 5779 5778 5777 5775 5774 5773 5772 5771 5769 5768 5766
5821 5802 5783 5773 5782 5797 5807 5812 5810 5801 5798 5797 5795 5781 5780 5794 5798 5796 5793 5791 5788 5787 5787 5787 5786 5786 5786 5786 5786 5785 5784 5783 5782 5781 5780 5779 5779 5778 5777 5776 5775 5774 5773 5772 5771 5770 5768 5767 5766
5808 5796 5775 5769 5785 5801 5810 5816 5812 5802 5797 5796 5792 5782 5779 5794 5794 5793 5794 5791 5789 5787 5786 5786 5786 5785 5785 5785 5784 5784 5783 5782 5781 5780 5779 5778 5777 5776 5775 5774 5773 5772 5771 5770 5770 5768 5767 5766 5765
5805 5792 5779 5783 5788 5796 5809 5819 5811 5802 5797 5798 5799 5782 5780 5789 5795 5795 5794 5791 5789 5788 5786 5786 5785 5785 5784 5784 5783 5783 5781 5781 5780 5779 5778 5777 5776 5775 5774 5773 5772 5771 5770 5770 5769 5768 5766 5766 5765
5821 5799 5787 5788 5791 5796 5815 5820 5818 5810 5803 5810 5806 5784 5778 5789 5797 5796 5792 5790 5788 5787 5786 5785 5785 5784 5783 5782 5782 5782 5780 5780 5779 5778 5777 5776 5775 5774 5773 5772 5771 5770 5769 5769 5768 5767 5766 5765 5764
5830 5795 5784 5794 5798 5803 5819 5816 5817 5822 5812 5809 5808 5800 5798 5800 5797 5792 5786 5784 5784 5784 5785 5785 5784 5783 5782 5782 5781 5781 5780 5779 5778 5777 5776 5775 5774 5773 5772 5772 5771 5770 5769 5768 5767 5766 5765 5764 5763
5820 5793 5802 5820 5822 5817 5821 5819 5817 5810 5801 5799 5800 5801 5802 5798 5793 5787 5783 5780 5781 5782 5783 5784 5784 5783 5783 5782 5781 5780 5779 5778 5777 5776 5775 5774 5773 5772 5771 5771 5770 5769 5768 5768 5766 5765 5764 5763 5762
5824 5812 5825 5832 5836 5832 5824 5822 5823 5808 5793 5798 5797 5797 5798 5795 5791 5788 5785 5784 5784 5785 5786 5786 5785 5784 5783 5782 5781 5779 5778 5777 5776 5775 5775 5773 5772 5771 5771 5770 5769 5768 5768 5767 5765 5764 5762 5762 5760
5828 5831 5836 5835 5840 5835 5828 5824 5818 5813 5807 5814 5811 5806 5800 5794 5791 5789 5787 5787 5787 5786 5786 5787 5787 5785 5784 5783 5781 5780 5778 5777 5776 5775 5775 5773 5772 5771 5770 5769 5768 5767 5767 5765 5764 5763 5761 5760 5759
5830 5833 5840 5841 5841 5838 5833 5824 5819 5815 5819 5819 5813 5807 5800 5796 5794 5794 5794 5792 5790 5788 5788 5788 5788 5787 5786 5784 5782 5781 5779 5778 5777 5776 5775 5773 5772 5770 5769 5768 5767 5766 5765 5764 5762 5761 5760 5759 5757
5837 5838 5839 5841 5839 5837 5827 5821 5818 5813 5820 5815 5810 5804 5803 5799 5798 5796 5793 5791 5790 5790 5790 5790 5790 5789 5787 5785 5783 5782 5781 5779 5777 5776 5775 5774 5773 5771 5769 5767 5766 5765 5764 5763 5761 5760 5759 5757 5756
5843 5830 5828 5833 5835 5833 5827 5807 5810 5818 5819 5811 5809 5806 5803 5801 5801 5798 5797 5795 5794 5793 5793 5792 5791 5790 5788 5786 5785 5783 5781 5779 5778 5776 5775 5774 5773 5771 5769 5767 5765 5764 5763 5762 5760 5759 5757 5755 5754
5831 5815 5804 5822 5832 5832 5817 5789 5811 5820 5817 5809 5809 5808 5804 5802 5803 5803 5801 5799 5798 5796 5794 5793 5794 5791 5789 5787 5785 5784 5781 5780 5778 5777 5776 5774 5773 5771 5769 5767 5765 5764 5762 5761 5759 5757 5755 5753 5751
5806 5794 5798 5814 5832 5829 5815 5797 5812 5820 5817 5809 5810 5809 5806 5803 5803 5804 5805 5803 5801 5799 5796 5794 5793 5791 5790 5788 5786 5784 5782 5780 5779 5777 5776 5774 5773 5771 5769 5767 5765 5763 5761 5759 5758 5755 5753 5750 5748
5790 5795 5801 5806 5824 5824 5810 5805 5814 5821 5818 5812 5811 5810 5807 5804 5804 5807 5807 5806 5804 5801 5798 5796 5794 5792 5790 5788 5785 5783 5781 5780 5779 5778 5776 5775 5773 5771 5768 5766 5764 5763 5760 5758 5756 5753 5751 5749 5747
5812 5805 5801 5813 5830 5820 5809 5807 5812 5818 5816 5811 5809 5808 5808 5808 5810 5811 5809 5808 5804 5801 5798 5796 5794 5792 5790 5787 5783 5780 5778 5779 5778 5778 5776 5775 5773 5771 5769 5767 5764 5762 5759 5757 5755 5753 5749 5747 5746
5813 5803 5803 5815 5829 5821 5807 5805 5814 5818 5817 5817 5814 5811 5810 5809 5808 5808 5808 5807 5805 5802 5799 5797 5795 5793 5791 5789 5786 5784 5781 5779 5778 5777 5776 5775 5773 5771 5769 5767 5764 5762 5759 5756 5754 5752 5748 5746 5745
5811 5806 5807 5808 5817 5818 5806 5793 5802 5814 5819 5819 5819 5817 5816 5814 5810 5809 5808 5807 5806 5803 5801 5800 5797 5795 5793 5790 5787 5784 5780 5778 5776 5775 5775 5775 5774 5772 5770 5768 5765 5762 5760 5757 5755 5753 5748 5744 5743
5802 5823 5823 5815 5798 5786 5796 5765 5790 5803 5808 5813 5815 5816 5816 5816 5815 5813 5811 5808 5807 5806 5805 5802 5799 5797 5794 5791 5787 5782 5777 5774 5774 5775 5775 5775 5774 5772 5771 5768 5766 5763 5760 5757 5755 5753 5750 5745 5741
5817 5832 5824 5814 5798 5784 5787 5771 5780 5799 5797 5806 5814 5818 5818 5820 5819 5817 5815 5813 5811 5810 5807 5804 5800 5797 5795 5792 5788 5783 5779 5777 5776 5776 5774 5773 5773 5772 5771 5769 5766 5763 5760 5758 5755 5753 5750 5747 5743
5830 5820 5810 5797 5782 5762 5777 5769 5770 5788 5801 5810 5816 5820 5821 5821 5822 5820 5818 5816 5813 5812 5808 5805 5800 5797 5796 5792 5789 5785 5781 5778 5775 5773 5772 5772 5771 5771 5770 5769 5766 5764 5761 5758 5755 5752 5749 5746 5743
5817 5785 5758 5753 5745 5751 5778 5771 5774 5804 5817 5820 5820 5822 5824 5824 5822 5818 5815 5813 5812 5810 5808 5805 5800 5797 5795 5793 5789 5786 5783 5780 5776 5774 5772 5770 5769 5769 5769 5768 5766 5763 5761 5758 5755 5752 5749 5746 5743
5801 5786 5753 5738 5736 5749 5771 5767 5786 5815 5824 5828 5828 5826 5825 5822 5821 5820 5818 5816 5814 5811 5809 5806 5802 5798 5796 5792 5789 5787 5784 5781 5778 5776 5774 5771 5770 5769 5769 5767 5765 5763 5760 5758 5754 5750 5748 5745 5743
5797 5785 5785 5759 5752 5744 5753 5773 5795 5812 5815 5819 5820 5821 5820 5820 5820 5819 5818 5817 5814 5811 5809 5807 5803 5798 5795 5791 5788 5785 5783 5781 5779 5777 5775 5773 5771 5770 5769 5767 5764 5762 5759 5756 5753 5749 5746 5744 5741
5809 5796 5771 5753 5736 5731 5745 5757 5766 5788 5798 5805 5810 5812 5816 5819 5819 5818 5816 5815 5814 5812 5810 5807 5803 5798 5795 5791 5787 5785 5782 5781 5779 5777 5774 5772 5771 5770 5767 5765 5762 5760 5757 5754 5751 5747 5745 5742 5739
5793 5785 5770 5753 5750 5733 5728 5747 5791 5793 5798 5800 5805 5810 5813 5815 5816 5815 5814 5813 5812 5810 5807 5803 5800 5797 5793 5790 5786 5783 5781 5779 5777 5775 5772 5771 5769 5767 5765 5763 5760 5757 5754 5752 5748 5746 5743 5739 5736
5797 5783 5768 5749 5744 5742 5736 5753 5803 5801 5804 5805 5806 5809 5812 5813 5813 5812 5811 5809 5807 5805 5802 5800 5798 5795 5792 5789 5785 5781 5779 5777 5774 5772 5770 5769 5766 5765 5762 5760 5757 5754 5752 5749 5746 5744 5741 5737 5734